TimeEST,TemperatureF,Dew PointF,Humidity,Sea Level PressureIn,VisibilityMPH,Wind Direction,Wind SpeedMPH,Gust SpeedMPH,PrecipitationIn,Events,Conditions,WindDirDegrees,DateUTC
12:12 AM,38.7,32.0,77,29.97,10.0,ESE,6.9,-,N/A,,Overcast,120,2012-11-07 05:12:00
12:33 AM,39.2,31.6,74,29.97,10.0,ESE,5.8,-,N/A,,Overcast,110,2012-11-07 05:33:00
12:53 AM,39.4,30.9,72,29.97,10.0,ESE,4.6,-,N/A,,Overcast,110,2012-11-07 05:53:00
1:13 AM,39.7,30.2,69,29.97,10.0,ESE,4.6,-,N/A,,Overcast,110,2012-11-07 06:13:00
1:33 AM,40.1,29.5,66,29.97,10.0,ESE,5.8,-,N/A,,Overcast,110,2012-11-07 06:33:00
1:54 AM,40.3,28.9,64,29.97,10.0,ESE,4.6,-,N/A,,Overcast,110,2012-11-07 06:54:00
2:14 AM,40.3,28.6,63,29.98,10.0,ESE,5.8,-,N/A,,Overcast,120,2012-11-07 07:14:00
2:34 AM,40.5,28.4,62,29.98,10.0,SE,6.9,-,N/A,,Overcast,130,2012-11-07 07:34:00
2:54 AM,40.5,28.4,62,29.98,10.0,ESE,5.8,-,N/A,,Overcast,120,2012-11-07 07:54:00
3:14 AM,40.5,28.4,62,29.99,10.0,ESE,8.1,-,N/A,,Overcast,110,2012-11-07 08:14:00
3:35 AM,40.3,28.4,63,29.99,10.0,ESE,5.8,-,N/A,,Overcast,120,2012-11-07 08:35:00
3:55 AM,40.3,28.4,63,29.99,10.0,ESE,4.6,-,N/A,,Overcast,120,2012-11-07 08:55:00
4:15 AM,40.1,28.4,63,29.99,10.0,ESE,5.8,-,N/A,,Overcast,110,2012-11-07 09:15:00
4:30 AM,40.1,28.4,63,30.00,10.0,ESE,4.6,-,N/A,,Overcast,110,2012-11-07 09:30:00
4:51 AM,39.6,28.4,64,30.00,10.0,ESE,5.8,-,N/A,,Mostly Cloudy,110,2012-11-07 09:51:00
5:11 AM,39.6,28.4,64,30.01,10.0,ESE,6.9,-,N/A,,Scattered Clouds,110,2012-11-07 10:11:00
5:31 AM,39.2,28.4,65,30.01,10.0,ESE,5.8,-,N/A,,Clear,110,2012-11-07 10:31:00
5:51 AM,38.5,28.4,67,30.02,10.0,ESE,5.8,-,N/A,,Clear,110,2012-11-07 10:51:00
6:12 AM,38.7,28.6,67,30.03,10.0,ESE,6.9,-,N/A,,Clear,110,2012-11-07 11:12:00
6:32 AM,38.1,28.4,68,30.04,10.0,ESE,3.5,-,N/A,,Clear,120,2012-11-07 11:32:00
6:52 AM,37.0,28.8,72,30.05,10.0,ESE,3.5,-,N/A,,Clear,110,2012-11-07 11:52:00
7:12 AM,37.0,28.9,73,30.05,10.0,ESE,4.6,-,N/A,,Clear,110,2012-11-07 12:12:00
7:33 AM,37.2,28.9,72,30.07,10.0,ESE,4.6,-,N/A,,Clear,110,2012-11-07 12:33:00
7:53 AM,37.0,29.1,73,30.08,10.0,ESE,4.6,-,N/A,,Scattered Clouds,110,2012-11-07 12:53:00
8:13 AM,37.8,29.3,72,30.09,10.0,ESE,5.8,-,N/A,,Overcast,120,2012-11-07 13:13:00
8:33 AM,37.9,29.3,71,30.10,10.0,ESE,4.6,-,N/A,,Overcast,120,2012-11-07 13:33:00
8:53 AM,38.1,29.1,70,30.10,10.0,ESE,4.6,-,N/A,,Overcast,110,2012-11-07 13:53:00
9:14 AM,38.7,29.3,69,30.10,10.0,ESE,5.8,-,N/A,,Overcast,120,2012-11-07 14:14:00
9:34 AM,40.5,29.1,64,30.10,10.0,SE,8.1,-,N/A,,Mostly Cloudy,140,2012-11-07 14:34:00
9:54 AM,41.2,28.4,60,30.10,10.0,SE,8.1,-,N/A,,Scattered Clouds,130,2012-11-07 14:54:00
10:14 AM,42.4,28.6,58,30.10,10.0,SE,9.2,-,N/A,,Scattered Clouds,130,2012-11-07 15:14:00
10:34 AM,43.3,28.2,55,30.10,10.0,SE,6.9,-,N/A,,Clear,130,2012-11-07 15:34:00
10:55 AM,44.4,27.7,52,30.11,10.0,SE,10.4,-,N/A,,Clear,140,2012-11-07 15:55:00
11:15 AM,45.1,28.0,51,30.11,10.0,SSE,6.9,-,N/A,,Clear,150,2012-11-07 16:15:00
11:35 AM,45.3,27.7,50,30.11,10.0,SE,4.6,-,N/A,,Clear,130,2012-11-07 16:35:00
11:55 AM,45.9,27.7,49,30.11,10.0,South,4.6,-,N/A,,Clear,190,2012-11-07 16:55:00
12:11 PM,46.6,27.7,48,30.11,10.0,SE,6.9,-,N/A,,Clear,140,2012-11-07 17:11:00
12:31 PM,47.3,27.5,46,30.09,10.0,SE,8.1,-,N/A,,Clear,140,2012-11-07 17:31:00
12:51 PM,47.8,27.3,45,30.08,10.0,ESE,5.8,-,N/A,,Clear,110,2012-11-07 17:51:00
1:11 PM,48.0,26.6,43,30.09,10.0,SE,4.6,-,N/A,,Clear,130,2012-11-07 18:11:00
1:32 PM,49.5,27.3,42,30.09,10.0,Calm,Calm,-,N/A,,Clear,0,2012-11-07 18:32:00
1:52 PM,50.2,29.1,44,30.09,10.0,West,5.8,-,N/A,,Clear,280,2012-11-07 18:52:00
2:12 PM,49.8,29.1,45,30.09,10.0,WNW,6.9,-,N/A,,Clear,290,2012-11-07 19:12:00
2:32 PM,49.5,31.5,50,30.09,10.0,West,8.1,-,N/A,,Clear,270,2012-11-07 19:32:00
2:52 PM,48.2,30.9,51,30.09,10.0,West,6.9,-,N/A,,Clear,270,2012-11-07 19:52:00
3:13 PM,48.2,31.3,52,30.09,10.0,West,6.9,-,N/A,,Clear,280,2012-11-07 20:13:00
3:33 PM,48.2,31.5,52,30.09,10.0,West,6.9,-,N/A,,Clear,270,2012-11-07 20:33:00
3:53 PM,48.2,31.6,53,30.09,10.0,West,4.6,-,N/A,,Clear,270,2012-11-07 20:53:00
4:13 PM,47.5,31.6,54,30.10,10.0,West,4.6,-,N/A,,Clear,260,2012-11-07 21:13:00
4:33 PM,46.6,29.3,51,30.10,10.0,NW,4.6,-,N/A,,Clear,310,2012-11-07 21:33:00
4:54 PM,45.1,30.2,56,30.10,10.0,North,3.5,-,N/A,,Clear,10,2012-11-07 21:54:00
5:14 PM,43.9,31.3,61,30.10,10.0,Calm,Calm,-,N/A,,Clear,0,2012-11-07 22:14:00
5:34 PM,40.5,31.5,70,30.10,10.0,Calm,Calm,-,N/A,,Clear,0,2012-11-07 22:34:00
5:54 PM,38.7,31.3,75,30.11,7.0,Calm,Calm,-,N/A,,Clear,0,2012-11-07 22:54:00
6:15 PM,36.9,31.5,81,30.12,10.0,Calm,Calm,-,N/A,,Clear,0,2012-11-07 23:15:00
6:35 PM,35.2,30.2,82,30.13,10.0,Calm,Calm,-,N/A,,Clear,0,2012-11-07 23:35:00
6:55 PM,36.1,31.8,84,30.13,10.0,Calm,Calm,-,N/A,,Mostly Cloudy,0,2012-11-07 23:55:00
7:15 PM,35.6,31.5,85,30.14,10.0,Calm,Calm,-,N/A,,Scattered Clouds,0,2012-11-08 00:15:00
7:30 PM,33.6,29.3,84,30.14,10.0,Calm,Calm,-,N/A,,Scattered Clouds,0,2012-11-08 00:30:00
7:51 PM,34.7,31.1,87,30.13,10.0,Calm,Calm,-,N/A,,Mostly Cloudy,0,2012-11-08 00:51:00
8:11 PM,34.9,31.1,86,30.14,10.0,Calm,Calm,-,N/A,,Overcast,0,2012-11-08 01:11:00
8:31 PM,36.5,32.0,84,30.14,10.0,Calm,Calm,-,N/A,,Overcast,0,2012-11-08 01:31:00
8:51 PM,37.0,32.4,83,30.14,10.0,Calm,Calm,-,N/A,,Overcast,0,2012-11-08 01:51:00
9:11 PM,36.7,32.4,84,30.14,10.0,Calm,Calm,-,N/A,,Overcast,0,2012-11-08 02:11:00
9:32 PM,36.9,32.4,84,30.14,10.0,Calm,Calm,-,N/A,,Overcast,0,2012-11-08 02:32:00
9:52 PM,38.3,32.9,81,30.14,10.0,Calm,Calm,-,N/A,,Overcast,0,2012-11-08 02:52:00
10:12 PM,38.3,33.8,84,30.14,10.0,Calm,Calm,-,N/A,,Overcast,0,2012-11-08 03:12:00
10:32 PM,37.9,33.1,83,30.14,10.0,Calm,Calm,-,N/A,,Overcast,0,2012-11-08 03:32:00
10:52 PM,38.3,33.3,82,30.14,10.0,Calm,Calm,-,N/A,,Overcast,0,2012-11-08 03:52:00
11:13 PM,38.3,33.6,83,30.14,10.0,Calm,Calm,-,N/A,,Overcast,0,2012-11-08 04:13:00
11:33 PM,38.5,33.4,82,30.13,10.0,Calm,Calm,-,N/A,,Overcast,0,2012-11-08 04:33:00
11:53 PM,38.7,33.8,83,30.13,10.0,Calm,Calm,-,N/A,,Overcast,0,2012-11-08 04:53:00